Time,TemperatureF,DewpointF,PressureIn,WindDirection,WindDirectionDegrees,WindSpeedMPH,WindSpeedGustMPH,Humidity,HourlyPrecipIn,Conditions,Clouds,dailyrainin,SoftwareType,DateUTC
2013-01-16 19:22:00,20.0,-3.0,30.14,NW,321,1.0,-999.0,35,-99.99,,,-99.99,,2013-01-17 01:22:00,
2013-01-16 19:33:00,20.0,-3.0,30.14,NW,321,1.0,-999.0,35,-99.99,,,-99.99,,2013-01-17 01:33:00,
2013-01-16 19:43:00,20.0,-3.0,30.14,NW,321,1.0,-999.0,35,-99.99,,,-99.99,,2013-01-17 01:43:00,
2013-01-16 19:52:00,19.0,-3.0,30.15,NW,313,0.0,-999.0,37,-99.99,,,-99.99,,2013-01-17 01:52:00,
2013-01-16 20:02:00,19.0,-3.0,30.15,NW,313,0.0,-999.0,37,-99.99,,,-99.99,,2013-01-17 02:02:00,
2013-01-16 20:12:00,19.0,-3.0,30.15,NW,313,0.0,-999.0,37,-99.99,,,-99.99,,2013-01-17 02:12:00,
2013-01-16 20:22:00,18.0,-2.0,30.17,NW,311,0.0,-999.0,40,-99.99,,,-99.99,,2013-01-17 02:22:00,
2013-01-16 20:32:00,18.0,-2.0,30.17,NW,311,0.0,-999.0,40,-99.99,,,-99.99,,2013-01-17 02:32:00,
2013-01-16 20:43:00,18.0,-2.0,30.17,NW,311,0.0,-999.0,40,-99.99,,,-99.99,,2013-01-17 02:43:00,
2013-01-16 20:52:00,18.0,-2.0,30.17,NW,311,0.0,-999.0,40,-99.99,,,-99.99,,2013-01-17 02:52:00,
2013-01-16 21:02:00,17.0,-4.0,30.17,WNW,300,0.0,-999.0,39,-99.99,,,-99.99,,2013-01-17 03:02:00,
2013-01-16 21:12:00,17.0,-4.0,30.17,WNW,300,0.0,-999.0,39,-99.99,,,-99.99,,2013-01-17 03:12:00,
2013-01-16 21:22:00,16.0,-7.0,30.19,NW,312,1.0,-999.0,35,-99.99,,,-99.99,,2013-01-17 03:22:00,
2013-01-16 21:32:00,16.0,-7.0,30.19,NW,312,1.0,-999.0,35,-99.99,,,-99.99,,2013-01-17 03:32:00,
2013-01-16 21:43:00,16.0,-7.0,30.19,NW,312,1.0,-999.0,35,-99.99,,,-99.99,,2013-01-17 03:43:00,
2013-01-16 21:52:00,15.0,-6.0,30.20,NW,311,0.0,-999.0,38,-99.99,,,-99.99,,2013-01-17 03:52:00,
2013-01-16 22:02:00,15.0,-6.0,30.20,NW,311,0.0,-999.0,38,-99.99,,,-99.99,,2013-01-17 04:02:00,
2013-01-16 22:12:00,14.0,-9.0,30.21,NW,308,6.0,-999.0,34,-99.99,,,-99.99,,2013-01-17 04:12:00,
2013-01-16 22:22:00,14.0,-9.0,30.21,NW,308,6.0,-999.0,34,-99.99,,,-99.99,,2013-01-17 04:22:00,
2013-01-16 22:32:00,14.0,-9.0,30.21,NW,308,6.0,-999.0,34,-99.99,,,-99.99,,2013-01-17 04:32:00,
2013-01-16 22:43:00,14.0,-9.0,30.21,NW,308,6.0,-999.0,34,-99.99,,,-99.99,,2013-01-17 04:43:00,
2013-01-16 22:52:00,13.0,-11.0,30.23,NW,314,0.0,-999.0,33,-99.99,,,-99.99,,2013-01-17 04:52:00,
2013-01-16 23:04:00,13.0,-11.0,30.23,NW,314,0.0,-999.0,33,-99.99,,,-99.99,,2013-01-17 05:04:00,
2013-01-16 23:12:00,13.0,-11.0,30.23,NW,314,0.0,-999.0,33,-99.99,,,-99.99,,2013-01-17 05:12:00,
2013-01-16 23:22:00,12.0,-12.0,30.26,WNW,295,0.0,-999.0,32,-99.99,,,-99.99,,2013-01-17 05:22:00,
2013-01-16 23:33:00,12.0,-12.0,30.26,WNW,295,0.0,-999.0,32,-99.99,,,-99.99,,2013-01-17 05:33:00,
2013-01-16 23:43:00,12.0,-12.0,30.26,WNW,295,0.0,-999.0,32,-99.99,,,-99.99,,2013-01-17 05:43:00,
2013-01-16 23:53:00,12.0,-10.0,30.27,WNW,297,0.0,-999.0,35,-99.99,,,-99.99,,2013-01-17 05:53:00,